Date String (YYYY-MM-DD hh:mm:ss) UTC,Instrument flags,Ambient pressure (hPa),Sample flow (lpm),Bypass flow (lpm),Sample temperature (°C),Ambient temperature (°C),ASC tube jacket temperature (°C),LED temperature (°C),Box temperature (°C),Sample RH (%),Span deviation,Mass concentration (μg/m³),Mass concentration (μg/m³),Mass concentration (μg/m³)
DateTimeUTC,F1_M11,P_M11,Q1_M11,Q2_M11,T1_M11,T2_M11,T3_M11,T4_M11,T5_M11,U1_M11,ZSPAN_M11,X0_M11,X2_M11,X1_M11
2021-10-29 05:00:00,,0832.4,4.99,0.00,27.2,26.3,00.0,36.3,29.0,12.1,0000.0,0015.53,0004.39,0003.49
2021-10-29 05:01:00,,0832.4,5.01,0.00,27.2,26.3,00.0,36.3,29.1,12.1,0000.0,0013.79,0004.32,0003.42
2021-10-29 05:02:00,,0832.4,5.01,0.00,27.3,26.3,00.0,36.3,29.1,12.1,0000.0,0013.41,0004.26,0003.36
2021-10-29 05:03:00,,0832.4,4.99,0.00,27.3,26.3,00.0,36.3,29.1,12.0,0000.0,0013.14,0004.26,0003.34
2021-10-29 05:04:00,,0832.4,4.99,0.00,27.3,26.3,00.0,36.3,29.1,12.0,0000.0,0013.64,0004.25,0003.33
2021-10-29 05:05:00,,0832.3,5.00,0.00,27.3,26.3,00.0,36.3,29.1,12.0,0000.0,0015.09,0004.32,0003.32
2021-10-29 05:06:00,,0832.4,5.00,0.00,27.3,26.3,00.0,36.3,29.1,12.0,0000.0,0015.59,0004.37,0003.35
2021-10-29 05:07:00,,0832.3,5.00,0.00,27.3,26.3,00.0,36.3,29.1,12.0,0000.0,0016.17,0004.52,0003.45
2021-10-29 05:08:00,,0832.3,5.00,0.00,27.3,26.3,00.0,36.3,29.1,12.0,0000.0,0017.82,0004.71,0003.54
2021-10-29 05:09:00,,0832.3,5.00,0.00,27.3,26.3,00.0,36.3,29.1,12.0,0000.0,0019.31,0004.84,0003.60
2021-10-29 05:10:00,,0832.2,5.00,0.00,27.2,26.3,00.0,36.3,29.0,12.0,0000.0,0019.68,0004.91,0003.60
2021-10-29 05:11:00,,0832.2,5.00,0.00,27.2,26.2,00.0,36.3,29.0,12.0,0000.0,0019.75,0004.95,0003.59
2021-10-29 05:12:00,,0832.1,5.00,0.00,27.2,26.2,00.0,36.3,29.0,12.0,0000.0,0019.88,0004.99,0003.57
2021-10-29 05:13:00,,0832.1,5.01,0.00,27.2,26.2,00.0,36.3,29.0,12.0,0000.0,0020.25,0005.01,0003.54
2021-10-29 05:14:00,,0832.1,5.00,0.00,27.2,26.2,00.0,36.3,29.0,12.0,0000.0,0020.98,0004.97,0003.49
2021-10-29 05:15:00,,0832.1,4.99,0.00,27.2,26.2,00.0,36.3,29.0,12.0,0000.0,0020.14,0004.95,0003.46
2021-10-29 05:16:00,,0832.1,5.00,0.00,27.2,26.2,00.0,36.2,29.0,12.0,0000.0,0018.22,0004.89,0003.43
2021-10-29 05:17:00,,0832.1,5.00,0.00,27.2,26.2,00.0,36.2,29.0,12.0,0000.0,0018.10,0004.89,0003.41
2021-10-29 05:18:00,,0832.1,5.01,0.00,27.2,26.2,00.0,36.2,29.0,12.0,0000.0,0019.02,0004.91,0003.39
2021-10-29 05:19:00,,0832.1,5.00,0.00,27.2,26.2,00.0,36.2,29.0,12.0,0000.0,0018.33,0004.90,0003.39
2021-10-29 05:20:00,,0832.1,4.99,0.00,27.2,26.2,00.0,36.2,29.0,12.0,0000.0,0017.23,0004.91,0003.41
2021-10-29 05:21:00,,0832.1,5.01,0.00,27.2,26.2,00.0,36.2,29.0,12.0,0000.0,0017.23,0004.96,0003.42
2021-10-29 05:22:00,,0832.2,5.00,0.00,27.2,26.2,00.0,36.2,29.0,12.0,0000.0,0016.93,0004.94,0003.41
2021-10-29 05:23:00,,0832.2,5.00,0.00,27.2,26.2,00.0,36.2,29.0,12.0,0000.0,0017.02,0004.88,0003.42
2021-10-29 05:24:00,,0832.2,5.01,0.00,27.2,26.2,00.0,36.2,29.0,11.9,0000.0,0015.82,0004.81,0003.43
2021-10-29 05:25:00,,0832.2,5.01,0.00,27.2,26.2,00.0,36.2,29.0,12.0,0000.0,0014.78,0004.79,0003.45
2021-10-29 05:26:00,,0832.1,5.00,0.00,27.2,26.2,00.0,36.2,29.0,11.9,0000.0,0015.48,0004.78,0003.45
2021-10-29 05:27:00,,0832.1,5.00,0.00,27.2,26.2,00.0,36.2,29.0,11.9,0000.0,0016.37,0004.77,0003.44
2021-10-29 05:28:00,,0832.1,5.01,0.00,27.2,26.2,00.0,36.2,29.0,11.9,0000.0,0017.10,0004.72,0003.40
2021-10-29 05:29:00,,0832.0,5.00,0.00,27.2,26.2,00.0,36.2,29.0,11.9,0000.0,0015.56,0004.65,0003.38
2021-10-29 05:30:00,,0832.1,5.00,0.00,27.2,26.2,00.0,36.2,29.0,11.9,0000.0,0015.06,0004.62,0003.37
2021-10-29 05:31:00,,0832.1,5.01,0.00,27.2,26.2,00.0,36.2,29.0,11.9,0000.0,0015.18,0004.60,0003.37
2021-10-29 05:32:00,,0832.1,5.01,0.00,27.2,26.2,00.0,36.2,29.0,11.9,0000.0,0014.89,0004.48,0003.36
2021-10-29 05:33:00,,0832.1,4.99,0.00,27.2,26.2,00.0,36.2,29.0,12.0,0000.0,0015.47,0004.46,0003.37
2021-10-29 05:34:00,,0832.1,5.00,0.00,27.2,26.2,00.0,36.2,29.0,11.9,0000.0,0016.15,0004.47,0003.37
2021-10-29 05:35:00,,0832.1,4.99,0.00,27.2,26.2,00.0,36.2,29.0,11.9,0000.0,0016.41,0004.46,0003.38
2021-10-29 05:36:00,,0832.1,5.00,0.00,27.2,26.2,00.0,36.2,29.0,11.9,0000.0,0016.67,0004.50,0003.40
2021-10-29 05:37:00,,0832.1,5.01,0.00,27.2,26.2,00.0,36.2,29.0,11.9,0000.0,0016.31,0004.55,0003.41
2021-10-29 05:38:00,,0832.0,5.01,0.00,27.2,26.2,00.0,36.2,29.0,11.9,0000.0,0016.12,0004.59,0003.43
2021-10-29 05:39:00,,0832.0,5.01,0.00,27.2,26.2,00.0,36.2,29.0,11.9,0000.0,0016.06,0004.64,0003.46
2021-10-29 05:40:00,,0832.1,4.99,0.00,27.2,26.2,00.0,36.2,29.0,12.0,0000.0,0016.18,0004.65,0003.47
2021-10-29 05:41:00,,0832.1,4.99,0.00,27.2,26.2,00.0,36.2,29.0,12.0,0000.0,0016.06,0004.67,0003.48
2021-10-29 05:42:00,,0832.1,5.00,0.00,27.2,26.2,00.0,36.2,29.0,12.0,0000.0,0016.07,0004.75,0003.48
2021-10-29 05:43:00,,0832.1,4.99,0.00,27.2,26.2,00.0,36.2,29.0,11.9,0000.0,0016.19,0004.79,0003.48
2021-10-29 05:44:00,,0832.1,5.01,0.00,27.2,26.2,00.0,36.2,29.0,11.9,0000.0,0016.43,0004.80,0003.47
2021-10-29 05:45:00,,0832.1,5.01,0.00,27.2,26.2,00.0,36.2,29.0,11.9,0000.0,0016.07,0004.76,0003.45
2021-10-29 05:46:00,,0832.1,4.99,0.00,27.2,26.2,00.0,36.2,29.0,11.9,0000.0,0016.57,0004.74,0003.41
2021-10-29 05:47:00,,0832.0,5.00,0.00,27.2,26.2,00.0,36.2,29.0,11.9,0000.0,0016.10,0004.70,0003.38
2021-10-29 05:48:00,,0832.0,5.01,0.00,27.2,26.2,00.0,36.2,29.0,11.9,0000.0,0015.92,0004.67,0003.37
2021-10-29 05:49:00,,0832.1,5.00,0.00,27.2,26.2,00.0,36.2,29.0,11.9,0000.0,0015.77,0004.66,0003.37
2021-10-29 05:50:00,,0832.1,5.00,0.00,27.2,26.2,00.0,36.2,29.0,11.9,0000.0,0015.57,0004.70,0003.38
2021-10-29 05:51:00,,0832.1,4.99,0.00,27.2,26.2,00.0,36.2,29.0,12.0,0000.0,0016.23,0004.78,0003.38
2021-10-29 05:52:00,,0832.1,5.01,0.00,27.2,26.2,00.0,36.2,29.0,11.9,0000.0,0017.01,0004.82,0003.36
2021-10-29 05:53:00,,0832.1,5.00,0.00,27.2,26.2,00.0,36.2,29.0,12.0,0000.0,0018.05,0004.79,0003.35
2021-10-29 05:54:00,,0832.1,5.00,0.00,27.2,26.2,00.0,36.2,29.0,12.0,0000.0,0017.96,0004.77,0003.36
2021-10-29 05:55:00,,0832.2,5.00,0.00,27.2,26.2,00.0,36.2,29.0,12.0,0000.0,0017.71,0004.83,0003.36
2021-10-29 05:56:00,,0832.1,4.99,0.00,27.2,26.1,00.0,36.2,29.0,12.0,0000.0,0017.18,0004.89,0003.37
2021-10-29 05:57:00,,0832.2,5.00,0.00,27.1,26.1,00.0,36.2,28.9,12.0,0000.0,0016.91,0004.98,0003.39
2021-10-29 05:58:00,,0832.1,5.01,0.00,27.1,26.1,00.0,36.2,28.9,12.0,0000.0,0017.51,0005.02,0003.39
2021-10-29 05:59:00,,0832.2,5.00,0.00,27.1,26.1,00.0,36.2,28.9,12.0,0000.0,0019.33,0005.05,0003.38
